www.pogodaiklimat.ru

Погода и климат >> Архив погоды >> Пакистан >> Пад Идан


ПОГОДА в Пад Идан

  • Прогноз погоды в Пад Идан
  • Монитор погоды в Пад Идан

АРХИВ ПОГОДЫ в Пад Идан

Время (UTC), дата Ветер
(напр.,м/с)
 
Видим.   Явления Облачность Т
(С)
Тd
(С)
f
(%)
Тe
(С)
Тes
(С)
Комфортность P
(гПа)
Po
(гПа)
Тmin
(С)
Tmax
(С)
R
(мм)
R24
(мм)
S
(см)
12 9.06 Ю 1 4000 м ясно +45.0 +20.6 25 +50 +57 опасность
перегрева
997.1 992.1 +46.1
15 9.06 Ю 1 4000 м ясно +38.0 +21.4 38 +45 +45 опасность
перегрева
998.2 1000.0
18 9.06 Ю 1 4000 м ясно +33.5 +22.7 53 +43 +43 опасность
перегрева
999.2 994.0
21 9.06 Ю 1 4000 м ясно +30.0 +22.8 65 +40 +40 очень
душно
998.3 1000.0
00 10.06 Ю 1 4000 м ясно +28.0 +22.1 70 +36 +36 очень
душно
997.6 992.4
03 10.06 Ю 1 4000 м ясно +30.0 +22.8 65 +40 +46 очень
душно
998.2 993.0 +27.0
06 10.06 Ю 1 4000 м ясно +36.5 +27.8 61 +56 +81 опасность
перегрева
999.8 1000.0
09 10.06 Ю 1 4000 м ясно +40.0 +29.5 56 +64 +88 опасность
перегрева
997.3 1000.0
12 10.06 Ю 1 4000 м ясно +41.0 +22.6 35 +49 +55 опасность
перегрева
994.5 989.5 +42.0
15 10.06 Ю 1 4000 м ясно +37.0 +23.6 46 +47 +47 опасность
перегрева
995.6 1000.0
18 10.06 Ю 1 4000 м ясно +32.0 +25.8 70 +47 +47 опасность
перегрева
996.4 1000.0
21 10.06 Ю 2 4000 м ясно +30.0 +24.3 72 +42 +42 опасность
перегрева
995.8 990.5
00 11.06 Ю 2 4000 м ясно +28.0 +23.7 77 +38 +38 очень
душно
995.3 990.1
03 11.06 Ю 1 4000 м ясно +30.5 +25.6 75 +45 +51 опасность
перегрева
995.9 990.7 +27.5
06 11.06 Ю 1 4000 м ясно +36.0 +24.9 53 +49 +74 опасность
перегрева
997.7 1000.0
09 11.06 Ю 1 4000 м ясно +40.0 +25.6 44 +54 +78 опасность
перегрева
995.4 1000.0
12 11.06 Ю 1 4000 м ясно +43.5 +21.4 29 +50 +57 опасность
перегрева
992.2 987.2 +44.5
15 11.06 Ю 1 4000 м ясно +38.5 +21.1 37 +45 +45 опасность
перегрева
993.4 1000.0
18 11.06 Ю 2 4000 м ясно +35.0 +25.3 57 +49 +49 опасность
перегрева
994.6 989.5
21 11.06 Ю 2 4000 м ясно +31.0 +24.6 69 +44 +44 опасность
перегрева
994.4 989.2
00 12.06 Ю 1 4000 м ясно +29.0 +24.0 74 +40 +40 очень
душно
993.6 988.4
03 12.06 Ю 1 4000 м ясно +32.0 +25.0 67 +46 +53 опасность
перегрева
994.8 989.6 +28.1
06 12.06 Ю 1 4000 м ясно +36.0 +24.0 50 +47 +70 опасность
перегрева
997.5 992.3
09 12.06 Ю 1 4000 м ясно +40.0 +24.8 42 +52 +76 опасность
перегрева
994.4 1000.0
12 12.06 С 2 4000 м ясно +42.0 +22.1 32 +49 +55 опасность
перегрева
994.0 989.1 +43.0
15 12.06 С 1 4000 м ясно +39.0 +23.5 41 +49 +49 опасность
перегрева
994.9 989.8
18 12.06 СЗ 1 4000 м ясно +34.0 +22.5 51 +43 +43 опасность
перегрева
996.8 1000.0
21 12.06 В 1 4000 м 4/0
[]
+32.0 +21.8 55 +41 +41 опасность
перегрева
996.3 991.1
00 13.06 В 1 4000 м 4/0
[]
+30.0 +22.8 65 +40 +40 очень
душно
1006.5 991.3
03 13.06 Ю 1 2000 м мгла 5/0
[Ci fib]
+32.0 +21.8 55 +41 +47 опасность
перегрева
998.8 993.6 +29.5
06 13.06 Ю 1 4000 м мгла 4/0
[Ci fib]
+36.5 +19.4 37 +42 +64 опасность
перегрева
1001.1 1000.0
09 13.06 Ю 1 4000 м мгла ясно +39.5 +20.6 34 +46 +70 опасность
перегрева
998.8 1000.0
12 13.06 Ю 1 4000 м ясно +39.0 +23.5 41 +49 +56 опасность
перегрева
997.4 992.3 +41.1
15 13.06 Ю 1 4000 м ясно +36.0 +24.0 50 +47 +47 опасность
перегрева
998.4 993.2
18 13.06 Ю 2 4000 м ясно +33.0 +24.6 61 +46 +46 опасность
перегрева
999.4 994.2
00 14.06 Ю 1 4000 м ясно +28.5 +23.5 74 +39 +39 очень
душно
998.2 993.0
03 14.06 штиль 0 4000 м ясно +32.0 +25.0 67 +46 +53 опасность
перегрева
1000.5 995.3 +27.5
06 14.06 Ю 1 4000 м ясно +35.0 +23.7 52 +46 +71 опасность
перегрева
1001.5 1000.0
09 14.06 Ю 1 4000 м ясно +38.5 +24.6 45 +50 +75 опасность
перегрева
998.9 1000.0
12 14.06 Ю 1 4000 м ясно +41.0 +24.4 39 +52 +58 опасность
перегрева
997.1 992.0 +42.0
15 14.06 Ю 1 4000 м ясно +37.0 +24.4 49 +49 +49 опасность
перегрева
998.5 1000.0
18 14.06 штиль 0 4000 м ясно +32.0 +25.0 67 +46 +46 опасность
перегрева
1000.3 995.0
21 14.06 штиль 0 4000 м ясно +31.0 +26.9 79 +48 +48 опасность
перегрева
999.1 993.8
00 15.06 Ю 1 4000 м ясно +29.0 +24.8 78 +41 +41 опасность
перегрева
999.0 993.7
03 15.06 штиль 0 4000 м ясно +30.0 +24.3 72 +42 +50 опасность
перегрева
1000.8 1000.0 +28.1
06 15.06 Ю 1 4000 м ясно +36.0 +23.2 48 +46 +69 опасность
перегрева
1000.9 995.8
09 15.06 Ю 1 4000 м ясно +39.0 +24.4 44 +51 +75 опасность
перегрева
999.2 1000.0
12 15.06 ЮВ 2 4000 м ясно +38.0 +25.6 49 +52 +58 опасность
перегрева
996.7 991.7 +40.1
15 15.06 Ю 2 4000 м ясно +34.0 +24.1 56 +46 +46 опасность
перегрева
997.8 992.6
18 15.06 Ю 2 4000 м ясно +28.0 +22.1 70 +36 +36 очень
душно
999.4 1000.0
21 15.06 В 1 4000 м 4/0
[]
+26.0 +21.5 76 +33 +33 очень
душно
998.2 1000.0
00 16.06 Ю 2 4000 м ясно +26.0 +21.5 76 +33 +33 очень
душно
1008.1 992.9
03 16.06 Ю 1 4000 м ясно +28.5 +22.7 71 +38 +44 очень
душно
999.3 994.1 +25.1
06 16.06 Ю 3 2000 м пыльный позёмок ясно +35.5 +25.1 55 +49 +67 опасность
перегрева
1000.0 1000.0

 

Местоположение метеостанции Пад Идан (Пакистан): широта 26.85 долгота 68.13 высота над уровнем моря 47 м.

В архиве по умолчанию представлена погода в Пад Идан за последнюю неделю. Архивные данные за месяц целиком и за предыдущие месяцы, начиная с января 2011 года, Вы можете получить, выбрав интересующий диапазон дат из раскрывающегося списка и нажав кнопку "Ввод!".


*Определитесь, кто Вы:
робот инопланетянин человек

Внимание! Время в таблицах - всемирное. Для получения местного времени необходимо прибавить поправку, которая равна 5 ч.

Смотрите также архив погоды в соседних городах и на ближайших метеорологических станциях:

Погода в Мохенджо-Даро (Пакистан) (52 км)
Погода в Навабшахе (Пакистан) (71 км)
Погода в Ларкане (Пакистан) (78 км)
Погода в Суккуре (Пакистан) (115 км)
Погода в Рохри (Пакистан) (119 км)
Погода в Даду (Пакистан) (138 км)
Погода в Джейкобабаде (Пакистан) (165 км)
Погода в Хайдарабате (Пакистан) (166 км)
Погода в Мир Пур Кхас (Пакистан) (170 км)
Погода в Хуздаре (Пакистан) (184 км)

Пояснения к столбцам:

Ветер - указаны скорость ветра в м/с - средняя за 10 мин, порывы в срок и между сроками (в фигурных скобках) и направление, откуда дует ветер: С - северный, СВ - северо-восточный, В - восточный, ЮВ - юго-восточный, Ю - южный, ЮЗ - юго-западный, З - западный, СЗ - северо-западный.
Видимость - горизонтальная дальность видимости в метрах или километрах. При видимости от 1 до 10 км при отсутствии осадков обычно наблюдается дымка, при ухудшении видимости до 1 км и менее - туман. В сухую погоду видимость может ухудшаться дымом, пылью или мглою.
Явления - указаны атмосферные явления, наблюдавшиеся в срок или в последний час перед сроком; фигурными скобками обозначены явления, наблюдавшиеся между сроками (за 1-3 часа до срока); квадратными скобками обозначены град или гололедные отложения с указанием их диаметра в мм.
Облачность - указаны через наклонную черту общая и нижняя облачность в баллах и высота нижней границы облаков в метрах; квадратными скобками обозначены формы облаков: Ci - перистые, Cs - перисто-слоистые, Cc - перисто-кучевые, Ac - высококучевые, As - высокослоистые, Sc - слоисто-кучевые, Ns - слоисто-дождевые, Cu - кучевые, Cb - кучево-дождевые. Подробнее классификацию облаков см. в Атласе облаков (PDF).
T - Температура воздуха - температура, измеренная на высоте 2 м над землей.
Td - Температура точки росы - температура, при понижении до которой содержащийся в воздухе водяной пар достигнет насыщения.
f - Относительная влажность воздуха - влажноcть воздуха, измеренная на высоте 2 м над землей.
Te - Эффективная температура - температура, которую ощущает одетый по сезону человек в тени. Характеристика душности погоды. При расчете учитывается влияние влажности воздуха и скорости ветра на теплоощущения человека.
Tes - Эффективная температура на солнце - температура, которую ощущает человек, с поправкой на солнечный нагрев. Характеристика знойности погоды. Зависит от высоты солнца над горизонтом, облачности и скорости ветра. Ночью, в пасмурную погоду, а также при ветре 12 м/с и более поправка равна нулю.
P - Атмосферное давление - приведенное к уровню моря атмосферное давление.
Po - Атмосферное давление - измеренное на уровне метеостанции атмосферное давление.
Tmin - Минимальная температура - минимум температуры воздуха на высоте 2 м над землей.
Tmax - Максимальная температура - максимум температуры воздуха на высоте 2 м над землей.
R - Количество осадков - Количество выпавших осадков за период времени, мм. При наведении курсора мыши на число - период времени, за который выпало указанное количество осадков.
R24 - Количество осадков - Количество выпавших осадков за 24 часа, мм.
S - Снежный покров - Высота снежного покрова, см. При наведении курсора мыши на число - состояние снежного покрова и степень покрытия местности в баллах.